owner,sensor,date,latitude,longitude,vertical_datum,wind_speed,wind_to_direction,wind_speed_of_gust,qcFlag 
WAVCIS,ioos:station:WAVCIS:CSI16:1,2011-07-01T00:00:00Z,29.4012,-89.0355,10.0,2.349,341.0,,'11111222,11111222,99999999' 
WAVCIS,ioos:station:WAVCIS:CSI16:1,2011-07-01T01:00:00Z,29.4012,-89.0355,10.0,3.799,341.0,,'11111222,11111222,99999999' 
WAVCIS,ioos:station:WAVCIS:CSI16:1,2011-07-01T02:00:00Z,29.4012,-89.0355,10.0,3.766,340.0,,'11111222,11111222,99999999' 
WAVCIS,ioos:station:WAVCIS:CSI16:1,2011-07-01T03:00:00Z,29.4012,-89.0355,10.0,4.173,336.0,,'11111222,11111222,99999999' 
WAVCIS,ioos:station:WAVCIS:CSI16:1,2011-07-01T04:00:00Z,29.4012,-89.0355,10.0,4.98,301.0,,'11111222,11111222,99999999' 
WAVCIS,ioos:station:WAVCIS:CSI16:1,2011-07-01T05:00:00Z,29.4012,-89.0355,10.0,5.177,288.0,,'11111222,11111222,99999999' 
WAVCIS,ioos:station:WAVCIS:CSI16:1,2011-07-01T06:00:00Z,29.4012,-89.0355,10.0,4.736,334.0,,'11111222,11111222,99999999' 
WAVCIS,ioos:station:WAVCIS:CSI16:1,2011-07-01T07:00:00Z,29.4012,-89.0355,10.0,4.399,338.0,,'11111222,11111222,99999999' 
WAVCIS,ioos:station:WAVCIS:CSI16:1,2011-07-01T08:00:00Z,29.4012,-89.0355,10.0,5.479,253.0,,'11111222,11111222,99999999' 
WAVCIS,ioos:station:WAVCIS:CSI16:1,2011-07-01T09:00:00Z,29.4012,-89.0355,10.0,4.939,318.0,,'11111222,11111222,99999999' 
WAVCIS,ioos:station:WAVCIS:CSI16:1,2011-07-01T10:00:00Z,29.4012,-89.0355,10.0,3.773,346.0,,'11111222,11111222,99999999' 
WAVCIS,ioos:station:WAVCIS:CSI16:1,2011-07-01T11:00:00Z,29.4012,-89.0355,10.0,3.322,58.0,,'11111222,11111222,99999999' 
WAVCIS,ioos:station:WAVCIS:CSI16:1,2011-07-01T12:00:00Z,29.4012,-89.0355,10.0,4.748,353.0,,'11111222,11111222,99999999' 
WAVCIS,ioos:station:WAVCIS:CSI16:1,2011-07-01T13:00:00Z,29.4012,-89.0355,10.0,4.999,7.0,,'11111222,11111222,99999999' 
WAVCIS,ioos:station:WAVCIS:CSI16:1,2011-07-01T14:00:00Z,29.4012,-89.0355,10.0,5.008,341.0,,'11111222,11111222,99999999' 
WAVCIS,ioos:station:WAVCIS:CSI16:1,2011-07-01T15:00:00Z,29.4012,-89.0355,10.0,4.195,356.0,,'11111222,11111222,99999999' 
WAVCIS,ioos:station:WAVCIS:CSI16:1,2011-07-01T16:00:00Z,29.4012,-89.0355,10.0,2.164,351.0,,'11111222,11111222,99999999' 
WAVCIS,ioos:station:WAVCIS:CSI16:1,2011-07-01T17:00:00Z,29.4012,-89.0355,10.0,1.181,351.0,,'11111222,11111222,99999999' 
WAVCIS,ioos:station:WAVCIS:CSI16:1,2011-07-01T18:00:00Z,29.4012,-89.0355,10.0,0.259,352.0,,'11111222,11111222,99999999' 
WAVCIS,ioos:station:WAVCIS:CSI16:1,2011-07-01T19:00:00Z,29.4012,-89.0355,10.0,0.166,314.0,,'11111222,11111222,99999999' 
WAVCIS,ioos:station:WAVCIS:CSI16:1,2011-07-01T20:00:00Z,29.4012,-89.0355,10.0,0.703,327.0,,'11111222,11111222,99999999' 
WAVCIS,ioos:station:WAVCIS:CSI16:1,2011-07-01T21:00:00Z,29.4012,-89.0355,10.0,1.874,316.0,,'11111222,11111222,99999999' 
WAVCIS,ioos:station:WAVCIS:CSI16:1,2011-07-01T22:00:00Z,29.4012,-89.0355,10.0,2.454,306.0,,'11111222,11111222,99999999' 
WAVCIS,ioos:station:WAVCIS:CSI16:1,2011-07-01T23:00:00Z,29.4012,-89.0355,10.0,2.944,300.0,,'11111222,11111222,99999999' 
WAVCIS,ioos:station:WAVCIS:CSI16:1,2011-07-02T00:00:00Z,29.4012,-89.0355,10.0,4.341,289.0,,'11111222,11111222,99999999' 
WAVCIS,ioos:station:WAVCIS:CSI16:1,2011-07-02T01:00:00Z,29.4012,-89.0355,10.0,4.386,287.0,,'11111222,11111222,99999999' 
WAVCIS,ioos:station:WAVCIS:CSI16:1,2011-07-02T02:00:00Z,29.4012,-89.0355,10.0,5.489,271.0,,'11111222,11111222,99999999' 
WAVCIS,ioos:station:WAVCIS:CSI16:1,2011-07-02T03:00:00Z,29.4012,-89.0355,10.0,5.866,240.0,,'11111222,11111222,99999999' 
WAVCIS,ioos:station:WAVCIS:CSI16:1,2011-07-02T04:00:00Z,29.4012,-89.0355,10.0,6.129,267.0,,'11111222,11111222,99999999' 
WAVCIS,ioos:station:WAVCIS:CSI16:1,2011-07-02T05:00:00Z,29.4012,-89.0355,10.0,5.618,277.0,,'11111222,11111222,99999999' 
WAVCIS,ioos:station:WAVCIS:CSI16:1,2011-07-02T06:00:00Z,29.4012,-89.0355,10.0,6.058,295.0,,'11111222,11111222,99999999' 
WAVCIS,ioos:station:WAVCIS:CSI16:1,2011-07-02T07:00:00Z,29.4012,-89.0355,10.0,5.787,289.0,,'11111222,11111222,99999999' 
WAVCIS,ioos:station:WAVCIS:CSI16:1,2011-07-02T08:00:00Z,29.4012,-89.0355,10.0,4.445,340.0,,'11111222,11111222,99999999' 
WAVCIS,ioos:station:WAVCIS:CSI16:1,2011-07-02T09:00:00Z,29.4012,-89.0355,10.0,4.101,344.0,,'11111222,11111222,99999999' 
WAVCIS,ioos:station:WAVCIS:CSI16:1,2011-07-02T10:00:00Z,29.4012,-89.0355,10.0,4.666,337.0,,'11111222,11111222,99999999' 
WAVCIS,ioos:station:WAVCIS:CSI16:1,2011-07-02T11:00:00Z,29.4012,-89.0355,10.0,5.184,328.0,,'11111222,11111222,99999999' 
WAVCIS,ioos:station:WAVCIS:CSI16:1,2011-07-02T12:00:00Z,29.4012,-89.0355,10.0,5.265,328.0,,'11111222,11111222,99999999' 
WAVCIS,ioos:station:WAVCIS:CSI16:1,2011-07-02T13:00:00Z,29.4012,-89.0355,10.0,5.05,338.0,,'11111222,11111222,99999999' 
WAVCIS,ioos:station:WAVCIS:CSI16:1,2011-07-02T14:00:00Z,29.4012,-89.0355,10.0,3.531,351.0,,'11111222,11111222,99999999' 
WAVCIS,ioos:station:WAVCIS:CSI16:1,2011-07-02T15:00:00Z,29.4012,-89.0355,10.0,2.59,353.0,,'11111222,11111222,99999999' 
WAVCIS,ioos:station:WAVCIS:CSI16:1,2011-07-02T16:00:00Z,29.4012,-89.0355,10.0,1.463,338.0,,'11111222,11111222,99999999' 
WAVCIS,ioos:station:WAVCIS:CSI16:1,2011-07-02T17:00:00Z,29.4012,-89.0355,10.0,0.306,318.0,,'11111222,11111222,99999999' 
WAVCIS,ioos:station:WAVCIS:CSI16:1,2011-07-02T18:00:00Z,29.4012,-89.0355,10.0,0.182,317.0,,'11111222,11111222,99999999' 
WAVCIS,ioos:station:WAVCIS:CSI16:1,2011-07-02T19:00:00Z,29.4012,-89.0355,10.0,0.234,306.0,,'11111222,11111222,99999999' 
WAVCIS,ioos:station:WAVCIS:CSI16:1,2011-07-02T20:00:00Z,29.4012,-89.0355,10.0,2.676,295.0,,'11111222,11111222,99999999' 
WAVCIS,ioos:station:WAVCIS:CSI16:1,2011-07-02T21:00:00Z,29.4012,-89.0355,10.0,3.712,326.0,,'11111222,11111222,99999999' 
WAVCIS,ioos:station:WAVCIS:CSI16:1,2011-07-02T22:00:00Z,29.4012,-89.0355,10.0,3.685,288.0,,'11111222,11111222,99999999' 
WAVCIS,ioos:station:WAVCIS:CSI16:1,2011-07-02T23:00:00Z,29.4012,-89.0355,10.0,3.322,283.0,,'11111222,11111222,99999999' 
WAVCIS,ioos:station:WAVCIS:CSI16:1,2011-07-03T00:00:00Z,29.4012,-89.0355,10.0,3.804,288.0,,'11111222,11111222,99999999' 
WAVCIS,ioos:station:WAVCIS:CSI16:1,2011-07-03T01:00:00Z,29.4012,-89.0355,10.0,2.917,302.0,,'11111222,11111222,99999999' 
WAVCIS,ioos:station:WAVCIS:CSI16:1,2011-07-03T02:00:00Z,29.4012,-89.0355,10.0,4.275,289.0,,'11111222,11111222,99999999' 
WAVCIS,ioos:station:WAVCIS:CSI16:1,2011-07-03T03:00:00Z,29.4012,-89.0355,10.0,4.224,293.0,,'11111222,11111222,99999999' 
WAVCIS,ioos:station:WAVCIS:CSI16:1,2011-07-03T04:00:00Z,29.4012,-89.0355,10.0,3.144,292.0,,'11111222,11111222,99999999' 
WAVCIS,ioos:station:WAVCIS:CSI16:1,2011-07-03T05:00:00Z,29.4012,-89.0355,10.0,2.476,290.0,,'11111222,11111222,99999999' 
WAVCIS,ioos:station:WAVCIS:CSI16:1,2011-07-03T06:00:00Z,29.4012,-89.0355,10.0,2.59,301.0,,'11111222,11111222,99999999' 
WAVCIS,ioos:station:WAVCIS:CSI16:1,2011-07-03T07:00:00Z,29.4012,-89.0355,10.0,3.677,309.0,,'11111222,11111222,99999999' 
WAVCIS,ioos:station:WAVCIS:CSI16:1,2011-07-03T08:00:00Z,29.4012,-89.0355,10.0,3.707,270.0,,'11111222,11111222,99999999' 
WAVCIS,ioos:station:WAVCIS:CSI16:1,2011-07-03T09:00:00Z,29.4012,-89.0355,10.0,1.457,310.0,,'11111222,11111222,99999999' 
WAVCIS,ioos:station:WAVCIS:CSI16:1,2011-07-03T10:00:00Z,29.4012,-89.0355,10.0,0.635,317.0,,'11111222,11111222,99999999' 
WAVCIS,ioos:station:WAVCIS:CSI16:1,2011-07-03T11:00:00Z,29.4012,-89.0355,10.0,0.337,349.0,,'11111222,11111222,99999999' 
WAVCIS,ioos:station:WAVCIS:CSI16:1,2011-07-03T12:00:00Z,29.4012,-89.0355,10.0,1.211,351.0,,'11111222,11111222,99999999' 
WAVCIS,ioos:station:WAVCIS:CSI16:1,2011-07-03T13:00:00Z,29.4012,-89.0355,10.0,2.5,352.0,,'11111222,11111222,99999999' 
WAVCIS,ioos:station:WAVCIS:CSI16:1,2011-07-03T14:00:00Z,29.4012,-89.0355,10.0,0.53,2.0,,'11111222,11111222,99999999' 
WAVCIS,ioos:station:WAVCIS:CSI16:1,2011-07-03T15:00:00Z,29.4012,-89.0355,10.0,0.326,14.0,,'11111222,11111222,99999999' 
WAVCIS,ioos:station:WAVCIS:CSI16:1,2011-07-03T16:00:00Z,29.4012,-89.0355,10.0,1.223,354.0,,'11111222,11111222,99999999' 
WAVCIS,ioos:station:WAVCIS:CSI16:1,2011-07-03T17:00:00Z,29.4012,-89.0355,10.0,1.949,306.0,,'11111222,11111222,99999999' 
WAVCIS,ioos:station:WAVCIS:CSI16:1,2011-07-03T18:00:00Z,29.4012,-89.0355,10.0,2.757,295.0,,'11111222,11111222,99999999' 
WAVCIS,ioos:station:WAVCIS:CSI16:1,2011-07-03T19:00:00Z,29.4012,-89.0355,10.0,4.379,341.0,,'11111222,11111222,99999999' 
WAVCIS,ioos:station:WAVCIS:CSI16:1,2011-07-03T20:00:00Z,29.4012,-89.0355,10.0,0.316,342.0,,'11111222,11111222,99999999' 
WAVCIS,ioos:station:WAVCIS:CSI16:1,2011-07-03T21:00:00Z,29.4012,-89.0355,10.0,3.508,340.0,,'11111222,11111222,99999999' 
WAVCIS,ioos:station:WAVCIS:CSI16:1,2011-07-03T22:00:00Z,29.4012,-89.0355,10.0,4.227,356.0,,'11111222,11111222,99999999' 
WAVCIS,ioos:station:WAVCIS:CSI16:1,2011-07-03T23:00:00Z,29.4012,-89.0355,10.0,4.198,357.0,,'11111222,11111222,99999999' 
WAVCIS,ioos:station:WAVCIS:CSI16:1,2011-07-04T00:00:00Z,29.4012,-89.0355,10.0,4.342,16.0,,'11111222,11111222,99999999' 
WAVCIS,ioos:station:WAVCIS:CSI16:1,2011-07-04T01:00:00Z,29.4012,-89.0355,10.0,4.199,316.0,,'11111222,11111222,99999999' 
WAVCIS,ioos:station:WAVCIS:CSI16:1,2011-07-04T02:00:00Z,29.4012,-89.0355,10.0,3.787,324.0,,'11111222,11111222,99999999' 
WAVCIS,ioos:station:WAVCIS:CSI16:1,2011-07-04T03:00:00Z,29.4012,-89.0355,10.0,3.389,329.0,,'11111222,11111222,99999999' 
WAVCIS,ioos:station:WAVCIS:CSI16:1,2011-07-04T04:00:00Z,29.4012,-89.0355,10.0,3.637,330.0,,'11111222,11111222,99999999' 
WAVCIS,ioos:station:WAVCIS:CSI16:1,2011-07-04T05:00:00Z,29.4012,-89.0355,10.0,3.884,333.0,,'11111222,11111222,99999999' 
WAVCIS,ioos:station:WAVCIS:CSI16:1,2011-07-04T06:00:00Z,29.4012,-89.0355,10.0,2.802,340.0,,'11111222,11111222,99999999' 
WAVCIS,ioos:station:WAVCIS:CSI16:1,2011-07-04T07:00:00Z,29.4012,-89.0355,10.0,3.686,338.0,,'11111222,11111222,99999999' 
WAVCIS,ioos:station:WAVCIS:CSI16:1,2011-07-04T08:00:00Z,29.4012,-89.0355,10.0,3.787,333.0,,'11111222,11111222,99999999' 
WAVCIS,ioos:station:WAVCIS:CSI16:1,2011-07-04T09:00:00Z,29.4012,-89.0355,10.0,2.736,334.0,,'11111222,11111222,99999999' 
WAVCIS,ioos:station:WAVCIS:CSI16:1,2011-07-04T10:00:00Z,29.4012,-89.0355,10.0,2.73,332.0,,'11111222,11111222,99999999' 
WAVCIS,ioos:station:WAVCIS:CSI16:1,2011-07-04T11:00:00Z,29.4012,-89.0355,10.0,2.736,332.0,,'11111222,11111222,99999999' 
WAVCIS,ioos:station:WAVCIS:CSI16:1,2011-07-04T12:00:00Z,29.4012,-89.0355,10.0,3.296,334.0,,'11111222,11111222,99999999' 
WAVCIS,ioos:station:WAVCIS:CSI16:1,2011-07-04T13:00:00Z,29.4012,-89.0355,10.0,2.274,331.0,,'11111222,11111222,99999999' 
WAVCIS,ioos:station:WAVCIS:CSI16:1,2011-07-04T14:00:00Z,29.4012,-89.0355,10.0,0.794,343.0,,'11111222,11111222,99999999' 
WAVCIS,ioos:station:WAVCIS:CSI16:1,2011-07-04T15:00:00Z,29.4012,-89.0355,10.0,2.636,339.0,,'11111222,11111222,99999999' 
WAVCIS,ioos:station:WAVCIS:CSI16:1,2011-07-04T16:00:00Z,29.4012,-89.0355,10.0,3.409,334.0,,'11111222,11111222,99999999' 
WAVCIS,ioos:station:WAVCIS:CSI16:1,2011-07-04T17:00:00Z,29.4012,-89.0355,10.0,3.333,8.0,,'11111222,11111222,99999999' 
WAVCIS,ioos:station:WAVCIS:CSI16:1,2011-07-04T18:00:00Z,29.4012,-89.0355,10.0,2.946,344.0,,'11111222,11111222,99999999' 
WAVCIS,ioos:station:WAVCIS:CSI16:1,2011-07-04T19:00:00Z,29.4012,-89.0355,10.0,3.482,353.0,,'11111222,11111222,99999999' 
WAVCIS,ioos:station:WAVCIS:CSI16:1,2011-07-04T20:00:00Z,29.4012,-89.0355,10.0,3.513,329.0,,'11111222,11111222,99999999' 
WAVCIS,ioos:station:WAVCIS:CSI16:1,2011-07-04T21:00:00Z,29.4012,-89.0355,10.0,3.995,328.0,,'11111222,11111222,99999999' 
WAVCIS,ioos:station:WAVCIS:CSI16:1,2011-07-04T22:00:00Z,29.4012,-89.0355,10.0,3.522,328.0,,'11111222,11111222,99999999' 
WAVCIS,ioos:station:WAVCIS:CSI16:1,2011-07-04T23:00:00Z,29.4012,-89.0355,10.0,2.166,337.0,,'11111222,11111222,99999999' 
WAVCIS,ioos:station:WAVCIS:CSI16:1,2011-07-05T00:00:00Z,29.4012,-89.0355,10.0,3.084,331.0,,'11111222,11111222,99999999' 
WAVCIS,ioos:station:WAVCIS:CSI16:1,2011-07-05T01:00:00Z,29.4012,-89.0355,10.0,4.373,325.0,,'11111222,11111222,99999999' 
WAVCIS,ioos:station:WAVCIS:CSI16:1,2011-07-05T02:00:00Z,29.4012,-89.0355,10.0,1.249,344.0,,'11111222,11111222,99999999' 
WAVCIS,ioos:station:WAVCIS:CSI16:1,2011-07-05T03:00:00Z,29.4012,-89.0355,10.0,3.355,331.0,,'11111222,11111222,99999999' 
WAVCIS,ioos:station:WAVCIS:CSI16:1,2011-07-05T04:00:00Z,29.4012,-89.0355,10.0,3.501,332.0,,'11111222,11111222,99999999' 
WAVCIS,ioos:station:WAVCIS:CSI16:1,2011-07-05T05:00:00Z,29.4012,-89.0355,10.0,3.263,332.0,,'11111222,11111222,99999999' 
WAVCIS,ioos:station:WAVCIS:CSI16:1,2011-07-05T06:00:00Z,29.4012,-89.0355,10.0,3.074,339.0,,'11111222,11111222,99999999' 
WAVCIS,ioos:station:WAVCIS:CSI16:1,2011-07-05T07:00:00Z,29.4012,-89.0355,10.0,3.904,342.0,,'11111222,11111222,99999999' 
WAVCIS,ioos:station:WAVCIS:CSI16:1,2011-07-05T08:00:00Z,29.4012,-89.0355,10.0,3.259,345.0,,'11111222,11111222,99999999' 
WAVCIS,ioos:station:WAVCIS:CSI16:1,2011-07-05T09:00:00Z,29.4012,-89.0355,10.0,2.498,344.0,,'11111222,11111222,99999999' 
WAVCIS,ioos:station:WAVCIS:CSI16:1,2011-07-05T10:00:00Z,29.4012,-89.0355,10.0,1.999,346.0,,'11111222,11111222,99999999' 
WAVCIS,ioos:station:WAVCIS:CSI16:1,2011-07-05T11:00:00Z,29.4012,-89.0355,10.0,1.652,345.0,,'11111222,11111222,99999999' 
WAVCIS,ioos:station:WAVCIS:CSI16:1,2011-07-05T12:00:00Z,29.4012,-89.0355,10.0,1.757,348.0,,'11111222,11111222,99999999' 
WAVCIS,ioos:station:WAVCIS:CSI16:1,2011-07-05T13:00:00Z,29.4012,-89.0355,10.0,0.253,347.0,,'11111222,11111222,99999999' 
WAVCIS,ioos:station:WAVCIS:CSI16:1,2011-07-05T14:00:00Z,29.4012,-89.0355,10.0,0.317,347.0,,'11111222,11111222,99999999' 
WAVCIS,ioos:station:WAVCIS:CSI16:1,2011-07-05T15:00:00Z,29.4012,-89.0355,10.0,0.34,350.0,,'11111222,11111222,99999999' 
WAVCIS,ioos:station:WAVCIS:CSI16:1,2011-07-05T16:00:00Z,29.4012,-89.0355,10.0,0.436,353.0,,'11111222,11111222,99999999' 
WAVCIS,ioos:station:WAVCIS:CSI16:1,2011-07-05T17:00:00Z,29.4012,-89.0355,10.0,1.299,352.0,,'11111222,11111222,99999999' 
WAVCIS,ioos:station:WAVCIS:CSI16:1,2011-07-05T18:00:00Z,29.4012,-89.0355,10.0,2.74,354.0,,'11111222,11111222,99999999' 
WAVCIS,ioos:station:WAVCIS:CSI16:1,2011-07-05T19:00:00Z,29.4012,-89.0355,10.0,3.567,329.0,,'11111222,11111222,99999999' 
WAVCIS,ioos:station:WAVCIS:CSI16:1,2011-07-05T20:00:00Z,29.4012,-89.0355,10.0,3.954,325.0,,'11111222,11111222,99999999' 
WAVCIS,ioos:station:WAVCIS:CSI16:1,2011-07-05T21:00:00Z,29.4012,-89.0355,10.0,3.641,327.0,,'11111222,11111222,99999999' 
WAVCIS,ioos:station:WAVCIS:CSI16:1,2011-07-05T22:00:00Z,29.4012,-89.0355,10.0,3.936,326.0,,'11111222,11111222,99999999' 
WAVCIS,ioos:station:WAVCIS:CSI16:1,2011-07-05T23:00:00Z,29.4012,-89.0355,10.0,3.353,329.0,,'11111222,11111222,99999999' 
WAVCIS,ioos:station:WAVCIS:CSI16:1,2011-07-06T00:00:00Z,29.4012,-89.0355,10.0,2.42,337.0,,'11111222,11111222,99999999' 
WAVCIS,ioos:station:WAVCIS:CSI16:1,2011-07-06T01:00:00Z,29.4012,-89.0355,10.0,2.354,334.0,,'11111222,11111222,99999999' 
WAVCIS,ioos:station:WAVCIS:CSI16:1,2011-07-06T02:00:00Z,29.4012,-89.0355,10.0,2.751,342.0,,'11111222,11111222,99999999' 
WAVCIS,ioos:station:WAVCIS:CSI16:1,2011-07-06T03:00:00Z,29.4012,-89.0355,10.0,3.158,343.0,,'11111222,11111222,99999999' 
WAVCIS,ioos:station:WAVCIS:CSI16:1,2011-07-06T04:00:00Z,29.4012,-89.0355,10.0,3.55,336.0,,'11111222,11111222,99999999' 
WAVCIS,ioos:station:WAVCIS:CSI16:1,2011-07-06T05:00:00Z,29.4012,-89.0355,10.0,2.685,337.0,,'11111222,11111222,99999999' 
WAVCIS,ioos:station:WAVCIS:CSI16:1,2011-07-06T06:00:00Z,29.4012,-89.0355,10.0,3.133,347.0,,'11111222,11111222,99999999' 
WAVCIS,ioos:station:WAVCIS:CSI16:1,2011-07-06T07:00:00Z,29.4012,-89.0355,10.0,1.224,347.0,,'11111222,11111222,99999999' 
WAVCIS,ioos:station:WAVCIS:CSI16:1,2011-07-06T08:00:00Z,29.4012,-89.0355,10.0,0.684,349.0,,'11111222,11111222,99999999' 
WAVCIS,ioos:station:WAVCIS:CSI16:1,2011-07-06T09:00:00Z,29.4012,-89.0355,10.0,0.358,348.0,,'11111222,11111222,99999999' 
WAVCIS,ioos:station:WAVCIS:CSI16:1,2011-07-06T10:00:00Z,29.4012,-89.0355,10.0,0.581,348.0,,'11111222,11111222,99999999' 
WAVCIS,ioos:station:WAVCIS:CSI16:1,2011-07-06T11:00:00Z,29.4012,-89.0355,10.0,0.625,348.0,,'11111222,11111222,99999999' 
WAVCIS,ioos:station:WAVCIS:CSI16:1,2011-07-06T12:00:00Z,29.4012,-89.0355,10.0,0.686,348.0,,'11111222,11111222,99999999' 
WAVCIS,ioos:station:WAVCIS:CSI16:1,2011-07-06T13:00:00Z,29.4012,-89.0355,10.0,8.07,268.0,,'11111222,11111222,99999999' 
WAVCIS,ioos:station:WAVCIS:CSI16:1,2011-07-06T14:00:00Z,29.4012,-89.0355,10.0,0.572,337.0,,'11111222,11111222,99999999' 
WAVCIS,ioos:station:WAVCIS:CSI16:1,2011-07-06T15:00:00Z,29.4012,-89.0355,10.0,1.638,16.0,,'11111222,11111222,99999999' 
WAVCIS,ioos:station:WAVCIS:CSI16:1,2011-07-06T16:00:00Z,29.4012,-89.0355,10.0,0.279,352.0,,'11111222,11111222,99999999' 
WAVCIS,ioos:station:WAVCIS:CSI16:1,2011-07-06T17:00:00Z,29.4012,-89.0355,10.0,0.4,347.0,,'11111222,11111222,99999999' 
WAVCIS,ioos:station:WAVCIS:CSI16:1,2011-07-06T18:00:00Z,29.4012,-89.0355,10.0,0.616,347.0,,'11111222,11111222,99999999' 
WAVCIS,ioos:station:WAVCIS:CSI16:1,2011-07-06T19:00:00Z,29.4012,-89.0355,10.0,1.444,346.0,,'11111222,11111222,99999999' 
WAVCIS,ioos:station:WAVCIS:CSI16:1,2011-07-06T20:00:00Z,29.4012,-89.0355,10.0,0.282,311.0,,'11111222,11111222,99999999' 
WAVCIS,ioos:station:WAVCIS:CSI16:1,2011-07-06T21:00:00Z,29.4012,-89.0355,10.0,0.486,164.0,,'11111222,11111222,99999999' 
WAVCIS,ioos:station:WAVCIS:CSI16:1,2011-07-06T22:00:00Z,29.4012,-89.0355,10.0,0.248,259.0,,'11111222,11111222,99999999' 
WAVCIS,ioos:station:WAVCIS:CSI16:1,2011-07-06T23:00:00Z,29.4012,-89.0355,10.0,0.545,250.0,,'11111222,11111222,99999999' 
WAVCIS,ioos:station:WAVCIS:CSI16:1,2011-07-07T00:00:00Z,29.4012,-89.0355,10.0,2.219,277.0,,'11111222,11111222,99999999' 
WAVCIS,ioos:station:WAVCIS:CSI16:1,2011-07-07T01:00:00Z,29.4012,-89.0355,10.0,1.549,342.0,,'11111222,11111222,99999999' 
WAVCIS,ioos:station:WAVCIS:CSI16:1,2011-07-07T02:00:00Z,29.4012,-89.0355,10.0,2.195,316.0,,'11111222,11111222,99999999' 
WAVCIS,ioos:station:WAVCIS:CSI16:1,2011-07-07T03:00:00Z,29.4012,-89.0355,10.0,1.261,342.0,,'11111222,11111222,99999999' 
WAVCIS,ioos:station:WAVCIS:CSI16:1,2011-07-07T04:00:00Z,29.4012,-89.0355,10.0,1.725,347.0,,'11111222,11111222,99999999' 
WAVCIS,ioos:station:WAVCIS:CSI16:1,2011-07-07T05:00:00Z,29.4012,-89.0355,10.0,3.583,345.0,,'11111222,11111222,99999999' 
WAVCIS,ioos:station:WAVCIS:CSI16:1,2011-07-07T06:00:00Z,29.4012,-89.0355,10.0,3.684,344.0,,'11111222,11111222,99999999' 
WAVCIS,ioos:station:WAVCIS:CSI16:1,2011-07-07T07:00:00Z,29.4012,-89.0355,10.0,3.653,344.0,,'11111222,11111222,99999999' 
WAVCIS,ioos:station:WAVCIS:CSI16:1,2011-07-07T08:00:00Z,29.4012,-89.0355,10.0,3.446,343.0,,'11111222,11111222,99999999' 
WAVCIS,ioos:station:WAVCIS:CSI16:1,2011-07-07T09:00:00Z,29.4012,-89.0355,10.0,2.681,349.0,,'11111222,11111222,99999999' 
WAVCIS,ioos:station:WAVCIS:CSI16:1,2011-07-07T10:00:00Z,29.4012,-89.0355,10.0,3.662,346.0,,'11111222,11111222,99999999' 
WAVCIS,ioos:station:WAVCIS:CSI16:1,2011-07-07T11:00:00Z,29.4012,-89.0355,10.0,1.475,345.0,,'11111222,11111222,99999999' 
WAVCIS,ioos:station:WAVCIS:CSI16:1,2011-07-07T12:00:00Z,29.4012,-89.0355,10.0,0.83,352.0,,'11111222,11111222,99999999' 
WAVCIS,ioos:station:WAVCIS:CSI16:1,2011-07-07T13:00:00Z,29.4012,-89.0355,10.0,1.104,351.0,,'11111222,11111222,99999999' 
WAVCIS,ioos:station:WAVCIS:CSI16:1,2011-07-07T14:00:00Z,29.4012,-89.0355,10.0,6.181,275.0,,'11111222,11111222,99999999' 
WAVCIS,ioos:station:WAVCIS:CSI16:1,2011-07-07T15:00:00Z,29.4012,-89.0355,10.0,3.861,336.0,,'11111222,11111222,99999999' 
WAVCIS,ioos:station:WAVCIS:CSI16:1,2011-07-07T16:00:00Z,29.4012,-89.0355,10.0,3.16,56.0,,'11111222,11111222,99999999' 
WAVCIS,ioos:station:WAVCIS:CSI16:1,2011-07-07T17:00:00Z,29.4012,-89.0355,10.0,4.191,330.0,,'11111222,11111222,99999999' 
WAVCIS,ioos:station:WAVCIS:CSI16:1,2011-07-07T18:00:00Z,29.4012,-89.0355,10.0,2.96,343.0,,'11111222,11111222,99999999' 
WAVCIS,ioos:station:WAVCIS:CSI16:1,2011-07-07T19:00:00Z,29.4012,-89.0355,10.0,0.924,344.0,,'11111222,11111222,99999999' 
WAVCIS,ioos:station:WAVCIS:CSI16:1,2011-07-07T20:00:00Z,29.4012,-89.0355,10.0,0.687,346.0,,'11111222,11111222,99999999' 
WAVCIS,ioos:station:WAVCIS:CSI16:1,2011-07-07T21:00:00Z,29.4012,-89.0355,10.0,0.669,342.0,,'11111222,11111222,99999999' 
WAVCIS,ioos:station:WAVCIS:CSI16:1,2011-07-07T22:00:00Z,29.4012,-89.0355,10.0,0.394,345.0,,'11111222,11111222,99999999' 
WAVCIS,ioos:station:WAVCIS:CSI16:1,2011-07-07T23:00:00Z,29.4012,-89.0355,10.0,2.762,352.0,,'11111222,11111222,99999999' 
WAVCIS,ioos:station:WAVCIS:CSI16:1,2011-07-08T00:00:00Z,29.4012,-89.0355,10.0,2.348,352.0,,'11111222,11111222,99999999' 
WAVCIS,ioos:station:WAVCIS:CSI16:1,2011-07-08T01:00:00Z,29.4012,-89.0355,10.0,3.398,353.0,,'11111222,11111222,99999999' 
WAVCIS,ioos:station:WAVCIS:CSI16:1,2011-07-08T02:00:00Z,29.4012,-89.0355,10.0,3.877,350.0,,'11111222,11111222,99999999' 
WAVCIS,ioos:station:WAVCIS:CSI16:1,2011-07-08T03:00:00Z,29.4012,-89.0355,10.0,4.458,346.0,,'11111222,11111222,99999999' 
WAVCIS,ioos:station:WAVCIS:CSI16:1,2011-07-08T04:00:00Z,29.4012,-89.0355,10.0,4.225,328.0,,'11111222,11111222,99999999' 
WAVCIS,ioos:station:WAVCIS:CSI16:1,2011-07-08T05:00:00Z,29.4012,-89.0355,10.0,3.983,350.0,,'11111222,11111222,99999999' 
WAVCIS,ioos:station:WAVCIS:CSI16:1,2011-07-08T06:00:00Z,29.4012,-89.0355,10.0,3.949,351.0,,'11111222,11111222,99999999' 
WAVCIS,ioos:station:WAVCIS:CSI16:1,2011-07-08T07:00:00Z,29.4012,-89.0355,10.0,3.942,351.0,,'11111222,11111222,99999999' 
WAVCIS,ioos:station:WAVCIS:CSI16:1,2011-07-08T08:00:00Z,29.4012,-89.0355,10.0,4.143,347.0,,'11111222,11111222,99999999' 
WAVCIS,ioos:station:WAVCIS:CSI16:1,2011-07-08T09:00:00Z,29.4012,-89.0355,10.0,3.82,350.0,,'11111222,11111222,99999999' 
WAVCIS,ioos:station:WAVCIS:CSI16:1,2011-07-08T10:00:00Z,29.4012,-89.0355,10.0,3.922,352.0,,'11111222,11111222,99999999' 
WAVCIS,ioos:station:WAVCIS:CSI16:1,2011-07-08T11:00:00Z,29.4012,-89.0355,10.0,3.317,353.0,,'11111222,11111222,99999999' 
WAVCIS,ioos:station:WAVCIS:CSI16:1,2011-07-08T12:00:00Z,29.4012,-89.0355,10.0,3.214,340.0,,'11111222,11111222,99999999' 
WAVCIS,ioos:station:WAVCIS:CSI16:1,2011-07-08T13:00:00Z,29.4012,-89.0355,10.0,4.384,335.0,,'11111222,11111222,99999999' 
WAVCIS,ioos:station:WAVCIS:CSI16:1,2011-07-08T14:00:00Z,29.4012,-89.0355,10.0,4.598,323.0,,'11111222,11111222,99999999' 
WAVCIS,ioos:station:WAVCIS:CSI16:1,2011-07-08T15:00:00Z,29.4012,-89.0355,10.0,5.282,295.0,,'11111222,11111222,99999999' 
WAVCIS,ioos:station:WAVCIS:CSI16:1,2011-07-08T16:00:00Z,29.4012,-89.0355,10.0,3.772,326.0,,'11111222,11111222,99999999' 
WAVCIS,ioos:station:WAVCIS:CSI16:1,2011-07-08T17:00:00Z,29.4012,-89.0355,10.0,3.122,334.0,,'11111222,11111222,99999999' 
WAVCIS,ioos:station:WAVCIS:CSI16:1,2011-07-08T18:00:00Z,29.4012,-89.0355,10.0,0.82,350.0,,'11111222,11111222,99999999' 
WAVCIS,ioos:station:WAVCIS:CSI16:1,2011-07-08T19:00:00Z,29.4012,-89.0355,10.0,1.299,353.0,,'11111222,11111222,99999999' 
WAVCIS,ioos:station:WAVCIS:CSI16:1,2011-07-08T20:00:00Z,29.4012,-89.0355,10.0,2.089,352.0,,'11111222,11111222,99999999' 
WAVCIS,ioos:station:WAVCIS:CSI16:1,2011-07-08T21:00:00Z,29.4012,-89.0355,10.0,4.127,346.0,,'11111222,11111222,99999999' 
WAVCIS,ioos:station:WAVCIS:CSI16:1,2011-07-08T22:00:00Z,29.4012,-89.0355,10.0,3.404,349.0,,'11111222,11111222,99999999' 
WAVCIS,ioos:station:WAVCIS:CSI16:1,2011-07-08T23:00:00Z,29.4012,-89.0355,10.0,5.313,334.0,,'11111222,11111222,99999999' 
WAVCIS,ioos:station:WAVCIS:CSI16:1,2011-07-09T00:00:00Z,29.4012,-89.0355,10.0,4.692,341.0,,'11111222,11111222,99999999' 
WAVCIS,ioos:station:WAVCIS:CSI16:1,2011-07-09T01:00:00Z,29.4012,-89.0355,10.0,5.927,316.0,,'11111222,11111222,99999999' 
WAVCIS,ioos:station:WAVCIS:CSI16:1,2011-07-09T02:00:00Z,29.4012,-89.0355,10.0,5.923,328.0,,'11111222,11111222,99999999' 
WAVCIS,ioos:station:WAVCIS:CSI16:1,2011-07-09T03:00:00Z,29.4012,-89.0355,10.0,6.289,319.0,,'11111222,11111222,99999999' 
WAVCIS,ioos:station:WAVCIS:CSI16:1,2011-07-09T04:00:00Z,29.4012,-89.0355,10.0,6.08,321.0,,'11111222,11111222,99999999' 